DW3200 Weather Reports


time (UTC)temp
F
wind
direction
speed
knots
gust
knots
rain 1hr
in
rain 24hr
in
rain mn
in
humidity
%
barometer
mb
20260831101546 39 279 0.0 0.0 0.00 0.00 0.00 78 1016.0
20260831100027 39 279 0.0 0.0 0.00 0.00 0.00 78 1015.9
20260831094530 39 279 0.0 0.0 0.00 0.00 0.00 77 1015.9
20260831093009 39 279 0.0 0.0 0.00 0.00 0.00 77 1016.1
20260831091508 40 279 0.0 0.0 0.00 0.00 0.00 77 1016.1
20260831090050 40 279 0.0 0.0 0.00 0.00 0.00 76 1016.2
20260831084602 40 279 0.0 0.0 0.00 0.00 0.00 76 1016.3
20260831083038 40 279 0.0 0.0 0.00 0.00 0.00 75 1016.3
20260831081535 40 279 0.0 0.0 0.00 0.00 0.00 74 1016.4
20260831080014 41 279 0.0 0.0 0.00 0.00 0.00 73 1016.3
20260831074531 42 279 0.0 0.0 0.00 0.00 0.00 73 1016.3
20260831073138 43 279 0.0 0.0 0.00 0.00 0.00 72 1016.3
20260831071555 43 279 0.0 0.0 0.00 0.00 0.00 70 1016.1
20260831070038 44 279 0.0 0.0 0.00 0.00 0.00 70 1016.1
20260831064541 45 279 0.0 0.0 0.00 0.00 0.00 68 1016.1
20260831063021 45 279 0.0 0.0 0.00 0.00 0.00 68 1015.9
20260831061530 46 279 0.0 0.0 0.00 0.00 0.00 67 1015.9
20260831060008 46 279 0.0 0.0 0.00 0.00 0.00 66 1016.0
20260831054508 47 279 0.0 0.0 0.00 0.00 0.00 65 1016.1
20260831053017 47 279 0.0 0.0 0.00 0.00 0.00 64 1016.0
20260831051513 48 279 0.0 0.0 0.00 0.00 0.00 62 1016.1
20260831050026 49 279 0.0 0.0 0.00 0.00 0.00 61 1016.1
20260831044507 50 279 0.0 0.0 0.00 0.00 0.00 58 1016.1
20260831043005 51 279 0.0 0.0 0.00 0.00 0.00 57 1016.0
20260831041506 51 279 0.0 0.0 0.00 0.00 0.00 56 1015.8
20260831040052 53 279 0.0 0.0 0.00 0.00 0.00 52 1015.8
20260831034547 55 279 0.0 0.0 0.00 0.00 0.00 50 1015.8
20260831033029 56 279 0.0 0.0 0.00 0.00 0.00 48 1015.8
20260831031529 58 279 0.0 0.0 0.00 0.00 0.00 45 1015.7
20260831030024 59 279 0.0 0.0 0.00 0.00 0.00 42 1015.5
20260831024511 61 279 0.0 0.0 0.00 0.00 0.00 39 1015.3
20260831023052 63 279 0.0 0.0 0.00 0.00 0.00 36 1015.1
20260831021553 65 279 0.0 0.0 0.00 0.00 0.00 34 1015.0
20260831020050 66 279 0.0 0.0 0.00 0.00 0.00 32 1015.0
20260831014551 67 279 0.0 0.0 0.00 0.00 0.00 31 1015.1
20260831013033 68 279 0.9 0.0 0.00 0.00 0.00 30 1015.1
20260831011537 68 279 0.9 0.0 0.00 0.00 0.00 28 1015.2
20260831010011 69 279 0.9 0.0 0.00 0.00 0.00 29 1015.3
20260831004515 69 279 1.7 0.0 0.00 0.00 0.00 28 1015.4
20260831003053 70 279 0.9 0.0 0.00 0.00 0.00 29 1015.4
20260831001550 69 279 1.7 0.0 0.00 0.00 0.00 30 1015.5
20260831000039 69 278 3.5 0.0 0.00 0.00 0.00 31 1015.6
20260830234531 69 286 5.2 0.0 0.00 0.00 0.00 31 1015.7
20260830233020 69 276 5.2 0.0 0.00 0.00 0.00 31 1015.8
20260830231512 70 299 1.7 0.0 0.00 0.00 0.00 32 1015.8
20260830230111 69 309 3.5 0.0 0.00 0.00 0.00 32 1015.8
20260830224553 69 56 1.7 0.0 0.00 0.00 0.00 33 1016.0
20260830223051 69 292 1.7 0.0 0.00 0.00 0.00 33 1016.2
20260830221534 68 296 5.2 0.0 0.00 0.00 0.00 34 1016.3
20260830220053 70 290 1.7 0.0 0.00 0.00 0.00 33 1016.3
20260830214517 69 294 3.5 0.0 0.00 0.00 0.00 34 1016.4
20260830213018 68 302 0.9 0.0 0.00 0.00 0.00 36 1016.5
20260830211554 67 299 1.7 0.0 0.00 0.00 0.00 35 1016.6
20260830210051 67 319 2.6 0.0 0.00 0.00 0.00 37 1016.8
20260830204548 66 272 4.3 0.0 0.00 0.00 0.00 37 1016.9
20260830203032 67 273 7.0 0.0 0.00 0.00 0.00 37 1016.8
20260830201513 67 290 2.6 0.0 0.00 0.00 0.00 37 1016.8
20260830200011 67 304 0.9 0.0 0.00 0.00 0.00 38 1016.9
20260830194552 66 306 0.9 0.0 0.00 0.00 0.00 38 1017.0
20260830193052 66 283 4.3 0.0 0.00 0.00 0.00 37 1017.1
20260830191612 66 277 2.6 0.0 0.00 0.00 0.00 36 1017.1
20260830190037 65 261 1.7 0.0 0.00 0.00 0.00 36 1017.2
20260830184515 64 277 4.3 0.0 0.00 0.00 0.00 37 1017.2
20260830183011 64 203 2.6 0.0 0.00 0.00 0.00 39 1017.3
20260830181553 64 288 3.5 0.0 0.00 0.00 0.00 40 1017.4
20260830180055 63 257 3.5 0.0 0.00 0.00 0.00 42 1017.5
20260830174535 62 285 3.5 0.0 0.00 0.00 0.00 42 1017.4
20260830173031 62 285 0.0 0.0 0.00 0.00 0.00 42 1017.4
20260830171512 60 281 2.6 0.0 0.00 0.00 0.00 45 1017.5
20260830170011 60 198 2.6 0.0 0.00 0.00 0.00 45 1017.5
20260830164550 59 292 0.0 0.0 0.00 0.00 0.00 47 1017.5
20260830163048 59 292 0.0 0.0 0.00 0.00 0.00 48 1017.7
20260830161527 57 292 0.0 0.0 0.00 0.00 0.00 51 1017.7
20260830160033 56 292 0.0 0.0 0.00 0.00 0.00 52 1017.9
20260830154507 55 292 0.0 0.0 0.00 0.00 0.00 54 1017.8
20260830153103 54 292 0.0 0.0 0.00 0.00 0.00 57 1018.0
20260830151539 52 292 0.0 0.0 0.00 0.00 0.00 64 1018.0
20260830150041 48 292 0.0 0.0 0.00 0.00 0.00 75 1018.1
20260830144521 44 292 0.0 0.0 0.00 0.00 0.00 80 1018.0
20260830143009 42 292 0.0 0.0 0.00 0.00 0.00 79 1017.9
20260830141549 40 292 0.0 0.0 0.00 0.00 0.00 82 1017.8
20260830140046 39 292 0.0 0.0 0.00 0.00 0.00 81 1017.5
20260830134526 38 292 0.0 0.0 0.00 0.00 0.00 82 1017.4
20260830133024 38 292 0.0 0.0 0.00 0.00 0.00 80 1017.3
20260830131505 38 292 0.0 0.0 0.00 0.00 0.00 79 1017.2
20260830130004 39 292 0.0 0.0 0.00 0.00 0.00 78 1017.0
20260830124543 39 292 0.0 0.0 0.00 0.00 0.00 77 1016.9
20260830123041 40 292 0.0 0.0 0.00 0.00 0.00 77 1016.6
20260830121522 40 292 0.0 0.0 0.00 0.00 0.00 76 1016.6
20260830120022 40 292 0.0 0.0 0.00 0.00 0.00 76 1016.6
20260830114600 41 292 0.0 0.0 0.00 0.00 0.00 75 1016.4
20260830113059 41 292 0.0 0.0 0.00 0.00 0.00 76 1016.3
20260830111543 41 292 0.0 0.0 0.00 0.00 0.00 75 1016.3
20260830110040 42 292 0.0 0.0 0.00 0.00 0.00 74 1016.2
20260830104526 42 292 0.0 0.0 0.00 0.00 0.00 73 1016.2
20260830103025 42 292 0.0 0.0 0.00 0.00 0.00 74 1016.1